This is the latest recevied weather packets stored in our database for station/object N0HEQ. If no packets are shown the sender has not sent any weather packets the latest 10 day(s).
| Time | Temp. | Humidity | Pressure | Rain* | Wind** | Luminosity | Snow |
|---|---|---|---|---|---|---|---|
| 1777669230 | 17.78° C | 23% | 1022.3 hPa | 0 mm | - | 157 W/m² | - |
| 1777668927 | 16.67° C | 23% | 1022.2 hPa | 0 mm | - | 749 W/m² | - |
| 1777667714 | 15.56° C | 24% | 1022.3 hPa | 0 mm | - | 761 W/m² | - |
| 1777667412 | 15.56° C | 28% | 1022.5 hPa | 0 mm | - | 801 W/m² | - |
| 1777665593 | 14.44° C | 29% | 1022.6 hPa | 0 mm | - | 870 W/m² | - |
| 1777661339 | 13.89° C | 36% | 1023.1 hPa | 0 mm | - | 853 W/m² | - |
| 1777660730 | 13.33° C | 33% | 1022.9 hPa | 0 mm | - | 433 W/m² | - |
| 1777660124 | 13.33° C | 31% | 1023.1 hPa | 0 mm | - | 879 W/m² | - |
| 1777659518 | 13.89° C | 32% | 1023.1 hPa | 0 mm | - | 299 W/m² | - |
| 1777658912 | 12.78° C | 33% | 1023.4 hPa | 0 mm | - | 435 W/m² | - |
| 1777658306 | 12.22° C | 38% | 1023.4 hPa | 0 mm | - | 587 W/m² | - |
| 1777658002 | 12.22° C | 33% | 1023.4 hPa | 0 mm | - | 397 W/m² | - |
| 1777657094 | 12.22° C | 38% | 1023.5 hPa | 0 mm | - | 466 W/m² | - |
| 1777656187 | 10.56° C | 42% | 1023.6 hPa | 0 mm | - | 476 W/m² | - |
| 1777655883 | 10° C | 39% | 1023.9 hPa | 0 mm | - | 100 W/m² | - |
| 1777654974 | 10.56° C | 41% | 1023.6 hPa | 0 mm | - | 116 W/m² | - |
| 1777653459 | 12.22° C | 35% | 1024 hPa | 0 mm | - | 163 W/m² | - |
| 1777653157 | 11.11° C | 38% | 1023.8 hPa | 0 mm | - | 217 W/m² | - |
| 1777652852 | 11.11° C | 41% | 1023.8 hPa | 0 mm | - | 112 W/m² | - |
| 1777652549 | 10.56° C | 39% | 1023.8 hPa | 0 mm | - | 127 W/m² | - |
| 1777652246 | 10° C | 45% | 1024 hPa | 0 mm | - | 168 W/m² | - |
| 1777651943 | 10° C | 42% | 1023.8 hPa | 0 mm | - | 194 W/m² | - |
| 1777651640 | 10° C | 50% | 1023.9 hPa | 0 mm | - | 351 W/m² | - |
| 1777651337 | 9.44° C | 44% | 1023.8 hPa | 0 mm | - | 249 W/m² | - |
| 1777651034 | 9.44° C | 50% | 1023.8 hPa | 0 mm | - | 371 W/m² | - |
* Rain latest hour (hover to see other rain measurements)
** Current wind speed in m/s (hover to see current wind gust speed)